{"data":{"norad_id":38093,"intl_designator":"2012-009A","name":"MUOS-1","alt_names":[],"object_type":"PAYLOAD","status":"ACTIVE","operator":null,"country":"US","launch_date":"2012-02-24","launch_site_code":"AFETR","launch_vehicle":null,"mission":null,"orbit_class":"UNKNOWN","rcs_meters":39.8107,"size_class":null,"mass_kg":null,"dimensions":null,"purposes":["comms"],"wikipedia_slug":null,"has_3d_model":false,"image_url":null,"decayed_at":null,"tle_current":{"epoch":"2026-09-19T23:20:14.692128Z","epoch_age_seconds":63960,"freshness":"FRESH","line1":"1 38093U 12009A   26262.97239227 -.00000129  00000+0  00000+0 0  9995","line2":"2 38093   5.6677  46.9752 0052243   3.7642 198.2327  1.00271158 53394","mean_motion":1.00271158,"eccentricity":0.0052243,"inclination_deg":5.6677,"raan_deg":46.9752,"arg_perigee_deg":3.7642,"mean_anomaly_deg":198.2327,"bstar":0,"rev_number":5339,"period_min":1436.105884007,"perigee_km":35566.488605498,"apogee_km":36007.052860437,"semimajor_km":42164.907732967,"source":"CELESTRAK","updated_at":"2026-09-20T09:00:35.173249Z"}}}